Probability
0 0 0 0 0 0 0 0 0 0 0 0 0 0 0 0 0 0 0 0 0 0 0 0 0 0 0 0 0 0 1 1 0 0 0 0 0 0 0 0 0 0 0
0 0 0 0 0 0 0 0 0 0 0 0 0 0 0 0 0 0 0 0 0 0 0 0 0 0 0 0 0 0 1 1 0 0 0 0 0 0 0 0 0 0 0
0 0 0 0 0 0 0 0 0 0 0 0 0 0 0 0 0 0 0 0 0 0 0 0 0 0 0 0 0 0 1 1 0 0 0 0 0 0 0 0 0 0 0
0 0 0 0 0 0 0 0 0 0 0 0 0 0 0 0 0 0 0 0 0 0 0 0 0 0 0 0 0 0 0 0 0 0 0 0 0 0 0 0 0 0 0
0 0 0 0 0 0 0 0 0 0 0 0 0 0 0 0 0 0 0 0 0 0 0 0 0 0 0 0 0 0 0 0 0 0 0 0 0 0 0 0 0 0 0
0 0 0 0 0 0 0 0 0 0 0 0 0 0 0 0 0 0 0 0 0 0 0 0 0 0 0 0 0 0 0 0 0 0 0 0 0 0 0 0 0 0 0
0 0 0 0 0 0 0 0 0 0 0 0 0 0 0 0 0 0 0 0 0 0 0 0 0 0 0 0 0 0 0 0 0 0 0 0 0 0 0 0 0 0 0
0 0 0 0 0 0 0 0 0 0 0 0 0 0 0 0 0 0 0 0 0 0 0 0 0 0 0 0 0 0 0 0 0 0 0 0 0 0 0 0 0 0 0
0 0 0 0 0 0 0 0 0 0 0 0 0 0 0 0 0 0 0 0 0 0 0 0 0 0 0 0 0 0 0 0 0 0 0 0 0 0 0 0 0 0 0
0 0 0 0 0 0 0 0 0 0 0 0 0 0 0 0 0 0 0 0 0 0 0 0 0 0 0 0 0 0 0 0 0 0 0 0 0 0 0 0 0 0 0
0 0 0 0 0 0 0 0 0 0 0 0 0 0 0 0 0 0 0 0 0 0 0 0 0 0 0 0 0 0 0 0 0 0 0 0 0 0 0 0 0 0 0
0 0 0 0 0 0 0 0 0 0 0 0 0 0 0 0 0 0 0 0 0 0 0 0 0 0 0 0 0 0 0 0 0 0 0 0 0 0 0 0 0 0 0
0 0 0 0 0 0 0 0 0 0 0 0 0 0 0 0 0 0 0 0 0 0 0 0 0 0 0 0 0 0 0 0 0 0 0 0 0 0 0 0 0 0 0
0 0 0 0 0 0 0 0 0 0 0 0 0 0 0 0 0 0 0 0 0 0 0 0 0 0 0 0 0 0 0 0 0 0 0 0 0 0 0 0 0 0 0
0 0 0 0 0 0 0 0 0 0 0 0 0 0 0 0 0 0 0 0 0 0 0 0 0 0 0 0 0 0 0 0 0 0 0 0 0 0 0 0 0 0 0
0 0 0 0 0 0 0 0 0 0 0 0 0 0 0 0 0 0 0 0 0 0 0 0 0 0 0 0 0 0 0 0 0 0 0 0 0 0 0 0 0 0 0
0 0 0 0 0 0 0 0 0 0 0 0 0 0 0 0 0 0 0 0 0 0 0 0 0 0 0 0 0 0 0 0 0 0 0 0 0 0 0 0 0 0 0
0 0 0 0 0 0 0 0 0 0 0 0 0 0 0 0 0 0 0 0 0 0 0 0 0 0 0 0 0 0 0 0 0 0 0 0 0 0 0 0 0 0 0
0 0 0 0 0 0 0 0 0 0 0 0 0 0 0 0 0 0 0 0 0 0 0 0 0 0 0 0 0 0 0 0 0 0 0 0 0 0 0 0 0 0 0
0 0 0 0 0 0 0 0 0 0 0 0 0 0 0 0 0 0 0 0 0 0 0 0 0 0 0 0 0 0 0 0 0 0 0 0 0 0 0 0 0 0 0
0 0 0 0 0 0 0 0 0 0 0 0 0 0 0 0 0 0 0 0 0 0 0 0 0 0 0 0 0 0 0 0 0 0 0 0 0 0 0 0 0 0 0
0 0 0 0 0 0 0 0 0 0 0 0 0 0 0 0 0 0 0 0 0 0 0 0 0 0 0 0 0 0 0 0 0 0 0 0 0 0 0 0 0 0 0
0 0 0 0 0 0 0 0 0 0 0 0 0 0 0 0 0 0 0 0 0 0 0 0 0 0 0 0 0 0 0 0 0 0 0 0 0 0 0 0 0 0 0
0 0 0 0 0 0 0 0 0 0 0 0 0 0 0 0 0 0 0 0 0 0 0 0 0 0 0 0 0 0 0 0 0 0 0 0 0 0 0 0 0 0 0
0 0 0 0 0 0 0 0 0 0 0 0 0 0 0 0 0 0 0 0 0 0 0 0 0 0 0 0 0 0 0 0 0 0 0 0 0 0 0 0 0 0 0
0 0 0 0 0 0 0 0 0 0 0 0 0 0 0 0 0 0 0 0 0 0 0 0 0 0 0 0 0 0 0 0 0 0 0 0 0 0 0 0 0 0 0
Wind_Speed
3 3 3 3 3 4 4 4 3 3 4 4 5 5 5 5 5 4 4 5 5 5 4 4 4 3 2 1 0 1 1 2 3 2 2 2 3 4 5 5 5 5 5
3 3 3 3 4 4 4 4 4 3 4 4 4 5 5 5 4 4 5 5 5 5 5 5 5 3 3 2 1 1 1 2 4 4 2 2 4 4 5 5 4 4 4
3 3 3 3 3 3 3 3 4 3 4 4 5 5 5 5 4 4 4 5 5 5 5 5 5 4 4 3 2 2 2 3 3 4 3 2 3 3 4 5 5 3 3
2 3 3 3 3 3 3 3 3 3 4 4 5 5 5 5 5 5 4 5 5 5 5 4 4 4 3 2 2 2 3 4 4 4 4 3 3 3 3 3 3 3 2
2 3 2 2 2 3 3 3 3 3 4 4 4 5 5 5 5 5 4 5 5 5 5 5 5 5 5 3 2 2 3 3 4 4 4 4 3 3 3 2 3 2 2
2 2 2 2 3 3 3 3 3 4 4 4 5 5 5 5 7 8 5 4 5 5 5 5 5 6 6 5 5 4 3 4 4 4 3 5 4 3 3 3 3 2 1
2 2 2 2 3 3 3 4 4 3 4 4 4 5 5 6 8 8 8 5 5 5 5 5 5 5 5 4 5 6 5 4 3 4 5 5 5 4 5 4 3 2 1
2 2 2 2 2 2 3 3 3 3 3 3 4 4 4 6 7 7 7 5 5 5 5 5 4 5 4 3 4 5 5 4 3 3 3 3 4 4 4 4 4 3 1
2 2 2 2 2 3 3 3 2 2 3 3 3 4 4 5 7 7 6 4 5 6 6 6 5 5 6 5 5 5 5 5 6 7 6 6 6 6 5 4 3 3 2
1 1 2 2 2 2 2 2 2 2 2 3 4 4 4 5 7 7 5 3 4 4 5 6 8 7 7 6 4 5 5 4 4 6 7 7 6 5 4 3 3 3 2
2 2 2 2 2 2 2 2 2 2 3 3 4 4 4 5 6 7 5 3 2 3 4 4 5 8 7 7 5 4 4 4 4 5 4 4 3 2 2 1 2 2 2
3 3 2 2 2 2 2 2 3 3 3 3 3 4 4 4 6 6 6 4 2 2 2 3 4 6 7 6 5 5 6 5 4 4 3 3 2 1 1 1 0 1 2
3 3 2 2 3 2 2 2 2 2 2 2 2 2 3 3 4 6 6 6 5 2 2 4 4 5 6 5 6 6 4 3 3 3 2 1 1 1 1 1 1 0 0
3 2 1 2 2 2 2 1 1 1 1 1 1 2 2 3 3 3 3 3 4 3 3 4 5 5 4 4 4 4 3 2 2 2 1 1 0 0 1 1 1 1 1
2 2 1 1 1 2 2 1 0 1 2 1 1 1 1 2 3 3 2 2 2 2 2 2 3 3 3 3 3 3 2 2 1 1 1 1 0 1 1 0 0 0 1
2 1 1 1 1 1 1 2 2 2 3 3 3 3 2 4 4 4 4 4 4 3 2 2 2 2 2 2 2 2 2 1 1 0 0 0 0 1 1 1 0 1 1
2 1 1 0 0 0 0 1 2 4 3 2 2 3 4 4 4 3 4 4 3 1 1 1 1 1 1 1 1 1 1 1 0 0 0 1 1 1 1 1 1 1 2
2 2 2 1 1 1 1 1 1 2 3 4 3 4 5 5 5 4 3 2 2 1 0 1 2 2 2 2 1 1 1 1 1 1 1 1 1 1 1 2 2 3 3
2 2 1 1 1 1 1 1 1 2 2 3 4 4 4 4 4 4 1 1 2 2 2 2 3 3 2 2 2 2 2 2 2 2 2 2 2 2 2 3 3 4 4
2 3 2 1 1 1 1 2 2 2 3 3 4 3 2 1 1 2 2 2 3 4 4 4 3 3 3 3 3 2 2 2 3 3 3 3 2 2 3 4 4 4 4
2 2 2 1 1 2 2 2 2 3 3 4 4 4 4 3 4 4 3 3 4 4 4 4 4 4 3 3 3 3 4 4 3 3 3 3 3 3 3 4 4 4 5
2 2 2 2 2 2 3 3 3 3 4 5 5 4 4 4 4 4 4 5 5 5 5 4 4 4 4 4 4 4 4 4 4 4 4 4 4 4 4 4 4 5 5
3 2 2 2 2 3 3 3 3 4 4 4 5 4 3 3 4 5 5 5 4 4 4 4 4 5 4 4 4 5 5 5 5 5 4 4 4 4 4 5 6 7 7
3 3 3 3 3 3 3 4 4 4 5 5 4 4 4 4 5 5 5 5 5 5 4 4 5 7 8 5 4 5 5 6 5 5 7 6 6 5 5 6 7 8 8
4 4 4 4 3 4 4 4 4 5 5 5 5 5 5 5 5 5 5 5 6 6 7 6 5 6 8 9 8 6 6 7 7 5 5 5 7 7 7 8 7 8 9
5 5 4 4 4 4 4 5 5 5 5 5 5 5 5 5 6 6 5 5 5 5 6 6 7 8 9 8 9 9 8 7 7 7 5 5 7 7 7 7 9 9 10
Wind_Direction
60 59 53 41 38 41 36 22 18 17 15 15 8 10 11 9 8 11 7 3 6 1 359 358 352 349 4 0 47 113 128 135 133 107 82 76 80 89 87 81 81 79 89
56 56 50 42 38 37 29 17 17 18 15 15 12 11 8 7 8 12 10 10 9 4 1 4 1 9 23 16 35 73 110 123 132 128 104 84 80 90 92 90 86 88 89
65 64 51 42 39 33 23 14 15 16 17 18 19 12 3 4 10 13 15 12 12 10 8 11 5 16 22 24 42 67 90 102 108 124 118 97 89 94 91 86 85 76 93
75 69 55 38 35 31 26 20 14 17 21 18 16 10 6 11 13 10 15 14 10 10 12 14 12 16 15 21 52 73 95 103 105 114 116 108 98 94 101 101 92 67 73
78 63 46 36 37 34 29 25 22 25 24 20 22 15 10 14 12 9 12 18 13 11 13 14 17 25 29 33 67 95 113 117 116 119 121 116 119 124 120 119 114 93 63
81 60 44 45 41 33 29 31 30 26 23 26 23 17 17 17 15 27 32 27 21 18 11 5 12 21 27 43 62 77 109 136 139 135 136 140 142 134 130 134 130 122 101
82 61 47 50 49 37 38 40 31 22 26 24 17 18 15 9 23 34 37 35 28 21 13 8 13 15 24 47 60 63 65 81 123 146 144 150 153 158 150 140 132 122 124
75 59 49 52 49 46 44 34 24 23 26 20 13 9 11 12 23 32 34 36 32 23 17 14 16 10 19 47 70 68 63 61 81 115 131 135 140 148 146 140 137 125 102
68 50 43 58 62 51 40 27 19 27 26 18 8 11 13 4 17 32 36 34 34 22 16 19 20 20 21 51 80 80 70 59 69 86 95 101 109 124 137 132 133 128 115
82 61 50 62 69 59 37 21 21 30 26 22 24 16 13 6 11 23 28 37 34 19 13 17 25 27 29 47 75 87 81 72 77 81 81 80 89 96 115 141 151 143 136
100 77 60 57 66 69 40 26 40 42 39 33 27 13 13 9 10 21 33 47 40 25 18 9 7 19 34 46 62 82 102 105 95 94 90 86 84 82 87 113 163 167 166
96 81 59 48 53 63 57 41 42 47 45 27 19 10 7 6 16 22 36 47 45 42 14 356 355 18 37 48 63 81 92 96 94 89 84 76 70 54 33 19 202 217 233
97 82 61 52 50 52 61 50 37 37 45 23 18 9 354 359 5 17 28 32 32 30 358 3 16 32 42 50 56 66 79 86 87 84 75 60 28 339 333 0 40 61 224
106 87 64 53 40 35 37 47 54 23 24 16 7 354 344 348 353 353 356 5 17 20 6 8 24 40 48 48 46 46 50 73 95 95 86 47 11 37 37 23 27 14 4
115 96 73 62 51 30 23 7 318 258 227 220 238 237 293 322 307 311 334 348 350 349 354 20 27 27 28 28 31 36 46 66 81 102 120 99 43 20 7 19 46 7 317
128 112 87 60 39 36 23 360 337 280 297 252 229 218 240 256 287 315 336 345 351 9 46 34 23 18 17 12 11 8 13 27 46 125 162 208 265 302 317 322 274 268 278
159 166 153 146 209 323 2 7 342 336 338 322 281 255 258 280 287 305 328 342 351 32 61 9 347 334 328 327 321 316 313 319 317 280 262 254 253 269 275 282 278 270 273
164 183 191 208 216 233 247 260 282 314 324 325 318 294 285 278 280 288 310 342 345 24 320 301 299 295 290 287 281 271 276 286 278 268 267 265 252 254 269 273 271 266 275
175 199 211 221 225 231 239 244 259 270 280 294 306 310 297 281 280 285 264 245 277 290 282 276 275 275 273 267 263 259 257 261 259 255 257 255 251 245 258 268 271 270 270
200 219 211 215 235 245 246 245 260 272 279 282 286 286 303 308 285 280 224 231 249 263 268 267 267 261 258 253 250 249 251 253 253 252 254 254 253 250 258 268 272 273 273
204 229 227 227 242 242 248 255 258 262 272 276 274 265 245 246 264 269 262 249 247 256 259 258 259 260 256 249 244 246 248 254 252 250 253 254 253 255 260 263 268 270 274
197 213 221 237 248 253 258 259 262 264 269 274 281 284 252 235 253 262 263 259 252 249 250 250 258 257 251 246 240 239 244 249 249 246 249 252 252 256 260 262 265 269 270
196 215 234 246 249 265 271 268 263 267 271 271 274 280 271 248 249 253 258 261 260 258 250 238 247 257 255 246 238 232 237 243 243 237 239 249 253 256 259 263 268 272 272
203 221 238 249 254 261 269 274 271 271 274 277 275 272 268 260 257 259 260 261 262 263 257 246 244 251 256 255 243 234 235 241 243 239 236 243 254 260 259 261 265 268 271
211 226 237 244 251 258 266 273 275 275 276 274 275 273 271 265 262 262 261 259 260 262 261 254 248 251 254 253 250 248 244 239 239 239 236 240 251 256 260 264 267 271 272
219 229 238 244 246 250 256 267 275 278 276 274 270 267 267 265 264 263 261 258 258 259 261 259 252 251 252 253 254 253 249 246 244 236 233 241 248 255 259 263 268 270 274